Location: Whitechurch
(43.9184°N, 81.4048°W)
Time: 08:47:58
(UTC+00:00)

Daily predictions for brighter satellites

Satellite Brightness Start Highest point End
(mag) Time Altitude Azimuth Time Altitude Azimuth Time Altitude Azimuth
GEOS 3 Rocket 4.1 12:00:52 10° SE 12:06:00 61° NE 12:11:16 10° NNW
Cosmos 1741 Rocket 4.0 12:02:28 10° SSW 12:07:44 84° WNW 12:13:01 10° NNE
Cosmos 1850 Rocket 4.0 12:03:16 10° SSW 12:08:28 79° WNW 12:13:45 10° NNE
Cosmos 1484 Rocket 3.4 12:05:37 10° N 12:08:35 27° WNW 12:11:33 10° SW
SL-4 R/B 3.2 12:06:33 10° SSW 12:09:58 40° SE 12:13:33 10° ENE
BREEZE-M DEB (TANK) 4.2 12:12:14 10° WNW 12:15:15 55° SSW 12:23:27 10° SE
Cosmos 1934 Rocket 4.3 12:10:50 10° S 12:16:51 74° E 12:22:55 10° NNE
Cosmos 292 Rocket 3.7 12:14:33 10° SSW 12:19:17 85° WNW 12:24:01 10° NNE
SJ-12 3.7 12:16:38 10° N 12:20:27 80° WNW 12:24:13 10° SSW
NOSS 3-1 (C) 4.1 22:41:13 10° NNW 22:48:18 65° NE 22:57:04 10° SE
NOSS 2-1 (D) 3.6 22:49:45 10° NW 22:53:18 76° SW 22:58:07 10° SSE
UNK 3.7 22:49:14 10° NNE 22:53:46 82° ESE 22:58:18 10° SSW
BlueWalker 3 1.8 22:51:34 10° WSW 22:55:08 83° NW 22:58:43 10° NE
Cosmos 909 Rocket 4.4 22:53:20 10° SSW 23:01:05 75° ESE 23:07:35 10° NE
COSMO-SKYMED 1 3.8 22:59:10 10° NE 23:02:13 20° E 23:05:15 10° SE
SJ-12 3.7 22:58:29 10° SSE 23:02:14 61° ENE 23:06:01 10° N
Cosmos 1486 Rocket 4.4 23:00:55 10° N 23:05:58 43° ENE 23:10:57 10° SE
Cosmos 1934 Rocket 4.0 23:03:57 10° N 23:10:08 64° E 23:16:22 10° SSE
Thor Agena Rocket 4.1 23:09:41 10° S 23:14:39 63° WSW 23:19:39 10° NNW
BREEZE-M DEB (TANK) 3.2 23:12:03 10° W 23:14:56 57° N 23:23:03 12° ENE
CZ-2D R/B 4.0 23:14:10 10° SE 23:17:31 30° ENE 23:20:53 10° N
DELTA 2 R/B (1) 4.3 23:14:10 10° W 23:19:33 51° S 23:24:56 10° ESE
AQUARIUS 4.2 23:15:34 10° SSE 23:19:58 86° W 23:24:24 10° NNW
IRS-1C 4.3 23:14:41 10° SSE 23:20:00 82° WSW 23:25:22 10° NNW
BREEZE-M (TANK) 2.9 23:21:23 10° WNW 23:23:17 28° N 23:25:07 15° NE
SPOT 1/Viking Rocket 3.5 23:18:18 10° SSE 23:23:25 71° ENE 23:28:32 10° N
PSLV R/B 4.3 23:21:31 10° SE 23:25:06 29° ENE 23:28:42 10° N
Cosmos 2228 Rocket 3.1 23:20:49 10° S 23:25:10 56° E 23:29:30 10° NNE
Resurs 01 Rocket 2.8 23:23:01 10° ESE 23:26:18 21° ENE 23:29:36 10° NNE
Resurs 1-3 3.8 23:22:47 10° SE 23:26:54 46° ENE 23:31:01 10° N
Cosmos 1777 Rocket 4.1 23:22:55 10° NNW 23:28:02 53° ENE 23:33:06 10° SE
USA 267 4.4 23:26:38 11° NE 23:31:38 28° N 23:37:00 10° NW
NOSS 8 (A) 4.1 23:29:19 10° NNW 23:32:13 63° NE 23:35:31 10° SE
Spot 4 Rocket 4.2 23:27:31 10° SE 23:32:23 47° ENE 23:37:17 10° N
YAOGAN 1 2.6 23:28:34 10° SSE 23:32:41 51° ENE 23:36:49 10° N
ATLAS CENTAUR R/B 1.7 23:31:55 10° S 23:34:32 26° ESE 23:35:22 22° E
Cosmos 1862 Rocket 3.7 23:31:54 10° SSW 23:36:18 79° W 23:40:41 10° N
Cosmos 1980 Rocket 2.1 23:32:11 10° NNW 23:37:47 70° ENE 23:43:23 10° SSE
Meteor 2-5 Rocket 4.0 23:32:53 10° SSE 23:38:14 47° E 23:43:42 10° NNE
Cosmos 2333 Rocket 3.6 23:40:09 10° N 23:43:58 18° NE 23:44:42 18° NE
ARIANE 5 R/B 3.8 23:42:13 10° S 23:47:11 45° W 23:52:09 10° NNW
COSMOS 2455 3.4 23:43:36 10° NW 23:49:31 61° WSW 23:55:25 10° SSE
Cosmos 1908 Rocket 3.8 23:45:26 10° N 23:49:39 45° ENE 23:53:53 10° SSE
Cosmos 1707 Rocket 4.2 23:46:16 10° SSW 23:50:28 56° W 23:54:43 10° N
Cosmos 2369 3.8 23:48:07 10° NNW 23:53:39 52° ENE 23:59:08 10° SE
USA 59 Rocket 2.9 23:51:16 10° WNW 23:54:13 20° WSW 23:57:47 10° SSW
